DW1462 Goedereede NL current weather conditions

sailwx.info

Wind from 165

Air temperature 13.3° C
Dewpoint 8.0° C

Last reported at 2018-Jul-20 01:47 UTC.
Time now 2018-Jul-20 02:42 UTC

Location: N 51°49' E 003°59'.
View on Google Maps.

See reports from other nearby stations

  
Tides and Currents Weather Stations Pressure Air Temp Water Temp Dewpoint Dewpoint Depression Visibility Wind Speed Wind Dir Waves Ship Positions
date/time (UTC)wind fromknots sea level pressurealtimeterstation pressurevisibilityair tempwater tempwave heightnotes
2018-Jul-20 01:47 165 13.3
2018-Jul-20 01:32 167 13.9
2018-Jul-20 01:17 167 13.9
2018-Jul-20 01:02 167 14.4
2018-Jul-20 00:47 167 14.4
2018-Jul-20 00:32 167 14.4
2018-Jul-20 00:17 169 14.4
2018-Jul-20 00:02 169 14.4
2018-Jul-19 23:47 170 14.4
2018-Jul-19 23:32 165 14.4
2018-Jul-19 23:17 157 15.0
2018-Jul-19 23:02 156 15.0
2018-Jul-19 22:47 155 15.0
2018-Jul-19 22:32 154 15.0
2018-Jul-19 22:17 171 15.6
2018-Jul-19 22:02 154 15.6
2018-Jul-19 21:47 166 15.6
2018-Jul-19 21:32 157 16.1
2018-Jul-19 21:17 176 16.1
2018-Jul-19 21:02 158 16.7
2018-Jul-19 20:47 174 17.2
2018-Jul-19 20:32 163 17.8
2018-Jul-19 20:17 175 18.3
2018-Jul-19 20:02 169 18.3
2018-Jul-19 19:47 178 18.9
2018-Jul-19 19:32 159 19.4
2018-Jul-19 19:17 151 19.4
2018-Jul-19 19:02 160 20.0
2018-Jul-19 18:47 164 20.0
2018-Jul-19 18:32 149 20.0
2018-Jul-19 18:17 123 20.0
2018-Jul-19 18:02 119 19.4
2018-Jul-19 17:47 115 20.0
2018-Jul-19 17:31 141 20.0
2018-Jul-19 17:16 151 20.6
2018-Jul-19 17:01 128 21.1
2018-Jul-19 16:46 122 21.1
2018-Jul-19 16:31 101 21.7
2018-Jul-19 16:16 110 21.7
2018-Jul-19 16:01 142 21.7
2018-Jul-19 15:46 124 21.7
2018-Jul-19 15:31 119 21.7
2018-Jul-19 15:16 119 21.7
2018-Jul-19 15:01 126 21.1
2018-Jul-19 14:46 101 21.1
2018-Jul-19 14:31 090 21.1
2018-Jul-19 14:16 136 21.1
2018-Jul-19 14:01 128 21.7
2018-Jul-19 13:46 132 21.1
2018-Jul-19 13:31 109 21.7
2018-Jul-19 13:16 120 21.7
2018-Jul-19 13:01 115 21.7
2018-Jul-19 12:46 130 21.7
2018-Jul-19 12:31 132 22.2
2018-Jul-19 12:16 085 21.7
2018-Jul-19 12:01 125 21.7
2018-Jul-19 11:46 128 21.7
2018-Jul-19 11:31 142 22.2
2018-Jul-19 11:16 119 22.2
2018-Jul-19 11:01 104 22.2
2018-Jul-19 10:46 146 22.2
2018-Jul-19 10:31 120 21.7
2018-Jul-19 10:16 149 21.1
2018-Jul-19 10:01 123 21.1
2018-Jul-19 09:46 160 21.1
2018-Jul-19 09:31 157 20.6
2018-Jul-19 09:16 107 20.0
2018-Jul-19 09:01 145 18.3
2018-Jul-19 08:46 124 17.2
2018-Jul-19 08:31 126 16.7
2018-Jul-19 08:16 126 16.1
2018-Jul-19 08:01 113 16.1
2018-Jul-19 07:46 127 16.1
2018-Jul-19 07:30 142 16.1
2018-Jul-19 07:15 099 16.7
2018-Jul-19 07:00 132 16.7
2018-Jul-19 06:45 105 16.7
2018-Jul-19 06:30 123 16.7
2018-Jul-19 06:15 118 16.7
2018-Jul-19 06:00 138 16.7
2018-Jul-19 05:45 132 16.7
2018-Jul-19 05:30 148 16.1
2018-Jul-19 05:15 140 15.6
2018-Jul-19 05:00 145 15.6
2018-Jul-19 04:45 141 15.6
2018-Jul-19 04:30 142 15.6
2018-Jul-19 04:15 143 15.6
2018-Jul-19 04:00 142 15.6
2018-Jul-19 03:45 138 15.6
2018-Jul-19 03:30 144 15.0
2018-Jul-19 03:15 143 15.0
2018-Jul-19 03:00 142 15.0
2018-Jul-19 02:45 143 15.0
2018-Jul-19 02:30 142 14.4
2018-Jul-19 02:15 141 14.4
2018-Jul-19 02:00 141 14.4
2018-Jul-19 01:45 141 14.4
2018-Jul-19 01:29 141 14.4
2018-Jul-19 01:14 140 14.4
2018-Jul-19 00:59 147 13.9
2018-Jul-19 00:44 150 13.9
2018-Jul-19 00:29 150 13.9
2018-Jul-19 00:14 150 13.9
2018-Jul-18 23:59 150 14.4
2018-Jul-18 23:44 150 14.4
2018-Jul-18 23:29 150 15.0
2018-Jul-18 23:14 150 15.0
2018-Jul-18 22:59 150 15.6
2018-Jul-18 22:44 150 15.6
2018-Jul-18 22:29 150 15.6
2018-Jul-18 22:14 150 16.1
2018-Jul-18 21:59 150 16.1
2018-Jul-18 21:44 150 16.1
2018-Jul-18 21:29 148 16.7
2018-Jul-18 21:14 157 17.8
2018-Jul-18 20:59 157 18.3
2018-Jul-18 20:44 158 18.3
2018-Jul-18 20:29 157 18.3
2018-Jul-18 20:14 151 18.3
2018-Jul-18 19:59 144 18.9
2018-Jul-18 19:44 157 19.4
2018-Jul-18 19:29 142 20.0
2018-Jul-18 19:14 138 20.0
2018-Jul-18 18:59 143 20.0
2018-Jul-18 18:44 138 20.6
2018-Jul-18 18:29 090 20.6
2018-Jul-18 18:14 142 20.6
2018-Jul-18 17:59 098 20.6
2018-Jul-18 17:44 086 20.6
2018-Jul-18 17:29 101 21.1
2018-Jul-18 17:14 108 21.1
2018-Jul-18 16:59 085 21.1
2018-Jul-18 16:44 095 21.1
2018-Jul-18 16:29 065 21.1
2018-Jul-18 16:14 117 21.1
2018-Jul-18 15:59 094 21.7
2018-Jul-18 15:44 123 21.1
2018-Jul-18 15:29 096 21.1
2018-Jul-18 15:14 113 21.1
2018-Jul-18 14:59 111 21.7
2018-Jul-18 14:44 074 21.1
2018-Jul-18 14:29 076 21.7
2018-Jul-18 14:14 072 21.1
2018-Jul-18 13:59 066 21.1
2018-Jul-18 13:44 082 21.1
2018-Jul-18 13:29 071 21.1
2018-Jul-18 13:14 073 21.1
2018-Jul-18 12:59 076 21.1
2018-Jul-18 12:44 079 21.7
2018-Jul-18 12:29 090 21.7
2018-Jul-18 12:14 091 21.1
2018-Jul-18 11:59 044 20.6
2018-Jul-18 11:44 044 20.6
2018-Jul-18 11:29 028 20.6
2018-Jul-18 11:14 080 20.6
2018-Jul-18 10:59 028 20.6
2018-Jul-18 10:44 049 20.0
2018-Jul-18 10:29 040 21.1
2018-Jul-18 10:14 044 21.7
2018-Jul-18 09:59 360 21.1
2018-Jul-18 09:44 335 20.6
2018-Jul-18 09:29 018 20.6
2018-Jul-18 09:14 342 20.6
2018-Jul-18 08:58 346 20.0
2018-Jul-18 08:43 325 19.4
2018-Jul-18 08:28 327 18.3
2018-Jul-18 08:13 346 17.8
2018-Jul-18 07:58 331 16.7
2018-Jul-18 07:43 340 16.7
2018-Jul-18 07:28 324 16.1
2018-Jul-18 07:13 334 16.1
2018-Jul-18 06:58 327 15.6
2018-Jul-18 06:43 327 15.6
2018-Jul-18 06:28 323 15.6
2018-Jul-18 06:13 337 15.0
2018-Jul-18 05:58 325 15.0
2018-Jul-18 05:43 345 14.4
2018-Jul-18 05:28 360 14.4
2018-Jul-18 05:13 322 13.9
2018-Jul-18 04:58 321 13.9
2018-Jul-18 04:43 326 13.3
2018-Jul-18 04:28 336 13.3
2018-Jul-18 04:13 333 12.8
2018-Jul-18 03:58 344 12.8
2018-Jul-18 03:43 339 12.8
2018-Jul-18 03:28 330 13.3
2018-Jul-18 03:12 327 12.8
2018-Jul-18 02:57 347 13.3
2018-Jul-18 02:42 329 13.3
2018-Jul-18 02:27 327 13.3
2018-Jul-18 02:12 333 13.3